When you browse on this site, cookies collect data to enhance your experience and personalize the content and advertising you see.
Visit our Privacy Policy to learn more. By continuing to use the site, you agree to this use of cookies and data.
  • In Österreich
  • Länderverzeichnis
  • Für 7 Tage
  • Wassertemperatur
  • Satellitenkarten
  • Wetterkarte
  • News
  • Widgets
  • user-avatar
    Anmelden

    Stündliche Wetter Yamagata

    Heute, 20 April, Samstag

    Zeit Temperatur Niederschläge Wind Luftdruck Luftfeuchtigkeit
    00:00 +2°C° 0 mm 2 m/S 719 mmHg 86%
    01:00 +3°C° 0 mm 1 m/S 719 mmHg 86%
    02:00 +2°C° 0 mm 1 m/S 719 mmHg 85%
    03:00 +2°C° 0 mm 1 m/S 719 mmHg 82%
    04:00 +2°C° 0 mm 1 m/S 719 mmHg 80%
    05:00 +3°C° 0 mm 1 m/S 719 mmHg 78%
    06:00 +3°C° 0 mm 1 m/S 719 mmHg 76%
    07:00 +4°C° 0 mm 2 m/S 720 mmHg 64%
    08:00 +7°C° 0 mm 2 m/S 720 mmHg 52%
    09:00 +8°C° 0 mm 3 m/S 720 mmHg 41%
    10:00 +9°C° 0 mm 3 m/S 720 mmHg 38%
    11:00 +11°C° 0 mm 3 m/S 720 mmHg 34%
    12:00 +12°C° 0 mm 3 m/S 720 mmHg 31%
    13:00 +13°C° 0 mm 3 m/S 719 mmHg 30%
    14:00 +13°C° 0 mm 3 m/S 719 mmHg 29%
    15:00 +13°C° 0 mm 3 m/S 719 mmHg 28%
    16:00 +12°C° 0 mm 2 m/S 719 mmHg 34%
    17:00 +10°C° 0 mm 2 m/S 719 mmHg 40%
    18:00 +8°C° 0 mm 2 m/S 718 mmHg 45%
    19:00 +8°C° 0 mm 1 m/S 718 mmHg 47%
    20:00 +7°C° 0 mm 1 m/S 718 mmHg 49%
    21:00 +4°C° 0 mm 0 m/S 718 mmHg 48%
    22:00 +4°C° 0 mm 0 m/S 718 mmHg 46%
    23:00 +4°C° 0 mm 0 m/S 718 mmHg 44%

    Morgen, 21 April, Sonntag

    Zeit Temperatur Niederschläge Wind Luftdruck Luftfeuchtigkeit
    00:00 +5°C° 0 mm 0 m/S 718 mmHg 42%
    01:00 +5°C° 0 mm 0 m/S 718 mmHg 40%
    02:00 +5°C° 0 mm 0 m/S 718 mmHg 39%
    03:00 +5°C° 0 mm 0 m/S 718 mmHg 37%
    04:00 +6°C° 0 mm 0 m/S 718 mmHg 38%
    05:00 +6°C° 0 mm 0 m/S 718 mmHg 38%
    06:00 +7°C° 0 mm 0 m/S 718 mmHg 39%
    07:00 +10°C° 0 mm 1 m/S 718 mmHg 35%
    08:00 +13°C° 0 mm 1 m/S 719 mmHg 32%
    09:00 +15°C° 0 mm 1 m/S 719 mmHg 28%
    10:00 +16°C° 0 mm 1 m/S 719 mmHg 31%
    11:00 +17°C° 0 mm 2 m/S 718 mmHg 34%
    12:00 +18°C° 0 mm 2 m/S 718 mmHg 37%
    13:00 +18°C° 0 mm 2 m/S 718 mmHg 41%
    14:00 +18°C° 0 mm 2 m/S 718 mmHg 44%
    15:00 +18°C° 0 mm 2 m/S 718 mmHg 48%
    16:00 +17°C° 0 mm 2 m/S 718 mmHg 53%
    17:00 +15°C° 0 mm 1 m/S 717 mmHg 59%
    18:00 +14°C° 0 mm 1 m/S 717 mmHg 65%
    19:00 +13°C° 0 mm 1 m/S 718 mmHg 67%
    20:00 +13°C° 0 mm 1 m/S 718 mmHg 69%
    21:00 +12°C° 0 mm 1 m/S 718 mmHg 71%
    22:00 +12°C° 0 mm 1 m/S 718 mmHg 73%
    23:00 +12°C° 0 mm 1 m/S 718 mmHg 75%

    übermorgen, 22 April, Montag

    Zeit Temperatur Niederschläge Wind Luftdruck Luftfeuchtigkeit
    00:00 +11°C° 0 mm 1 m/S 718 mmHg 77%
    01:00 +11°C° 0 mm 1 m/S 718 mmHg 80%
    02:00 +10°C° 0 mm 1 m/S 717 mmHg 84%
    03:00 +10°C° 0 mm 1 m/S 717 mmHg 87%
    04:00 +10°C° 0 mm 1 m/S 717 mmHg 87%
    05:00 +10°C° 0 mm 1 m/S 718 mmHg 86%
    06:00 +10°C° 0 mm 1 m/S 718 mmHg 86%
    07:00 +12°C° 0 mm 1 m/S 718 mmHg 77%
    08:00 +14°C° 0 mm 2 m/S 719 mmHg 68%
    09:00 +15°C° 0 mm 2 m/S 719 mmHg 59%
    10:00 +16°C° 0 mm 3 m/S 720 mmHg 55%
    11:00 +17°C° 0 mm 3 m/S 720 mmHg 50%
    12:00 +18°C° 0 mm 4 m/S 720 mmHg 46%
    13:00 +18°C° 0 mm 4 m/S 720 mmHg 43%
    14:00 +18°C° 0 mm 4 m/S 720 mmHg 39%
    15:00 +17°C° 0 mm 4 m/S 720 mmHg 36%
    16:00 +16°C° 0 mm 3 m/S 720 mmHg 42%
    17:00 +14°C° 0 mm 2 m/S 720 mmHg 47%
    18:00 +12°C° 0 mm 2 m/S 720 mmHg 53%
    19:00 +10°C° 0 mm 2 m/S 721 mmHg 58%
    20:00 +9°C° 0 mm 1 m/S 722 mmHg 63%
    21:00 +8°C° 0 mm 1 m/S 722 mmHg 68%
    22:00 +7°C° 0 mm 1 m/S 722 mmHg 64%
    23:00 +7°C° 0 mm 1 m/S 722 mmHg 61%

    23 April, Dienstag

    Zeit Temperatur Niederschläge Wind Luftdruck Luftfeuchtigkeit
    00:00 +6°C° 0 mm 1 m/S 722 mmHg 57%
    01:00 +5°C° 0 mm 0 m/S 722 mmHg 53%
    02:00 +5°C° 0 mm 0 m/S 722 mmHg 49%
    03:00 +4°C° 0 mm 0 m/S 722 mmHg 45%
    04:00 +5°C° 0 mm 0 m/S 722 mmHg 46%
    05:00 +7°C° 0 mm 1 m/S 723 mmHg 46%
    06:00 +7°C° 0 mm 1 m/S 723 mmHg 47%
    07:00 +10°C° 0 mm 1 m/S 723 mmHg 43%
    08:00 +12°C° 0 mm 2 m/S 723 mmHg 39%
    09:00 +15°C° 0 mm 2 m/S 724 mmHg 34%
    10:00 +17°C° 0 mm 2 m/S 724 mmHg 35%
    11:00 +18°C° 0 mm 2 m/S 724 mmHg 36%
    12:00 +20°C° 0 mm 2 m/S 723 mmHg 37%
    13:00 +21°C° 0 mm 2 m/S 723 mmHg 37%
    14:00 +21°C° 0 mm 2 m/S 723 mmHg 37%
    15:00 +23°C° 0 mm 2 m/S 722 mmHg 37%
    16:00 +20°C° 0 mm 2 m/S 722 mmHg 45%
    17:00 +19°C° 0 mm 1 m/S 722 mmHg 54%
    18:00 +16°C° 0 mm 1 m/S 722 mmHg 62%
    19:00 +15°C° 0 mm 1 m/S 722 mmHg 67%
    20:00 +13°C° 0 mm 1 m/S 722 mmHg 72%
    21:00 +11°C° 0 mm 0 m/S 722 mmHg 77%
    22:00 +12°C° 0 mm 1 m/S 722 mmHg 77%
    23:00 +12°C° 0 mm 1 m/S 722 mmHg 76%

    24 April, Mittwoch

    Zeit Temperatur Niederschläge Wind Luftdruck Luftfeuchtigkeit
    00:00 +12°C° 0 mm 1 m/S 722 mmHg 75%
    01:00 +12°C° 0 mm 1 m/S 721 mmHg 76%
    02:00 +12°C° 0 mm 1 m/S 721 mmHg 78%
    03:00 +12°C° 0 mm 1 m/S 721 mmHg 79%
    04:00 +12°C° 0 mm 1 m/S 721 mmHg 77%
    05:00 +13°C° 0 mm 1 m/S 721 mmHg 76%
    06:00 +14°C° 0 mm 1 m/S 721 mmHg 74%
    07:00 +16°C° 0 mm 1 m/S 721 mmHg 67%
    08:00 +20°C° 0 mm 1 m/S 721 mmHg 60%
    09:00 +22°C° 0 mm 1 m/S 721 mmHg 53%
    10:00 +23°C° 0 mm 1 m/S 721 mmHg 50%
    11:00 +24°C° 0 mm 1 m/S 721 mmHg 47%
    12:00 +25°C° 0 mm 1 m/S 721 mmHg 44%
    13:00 +24°C° 0.1 mm 1 m/S 720 mmHg 49%
    14:00 +23°C° 0.1 mm 1 m/S 720 mmHg 53%
    15:00 +21°C° 0.1 mm 2 m/S 719 mmHg 57%
    16:00 +20°C° 0.4 mm 1 m/S 719 mmHg 65%
    17:00 +19°C° 0.4 mm 1 m/S 719 mmHg 73%
    18:00 +15°C° 0.4 mm 0 m/S 718 mmHg 81%
    19:00 +15°C° 0.4 mm 0 m/S 718 mmHg 84%
    20:00 +15°C° 0.4 mm 1 m/S 718 mmHg 88%
    21:00 +15°C° 0.4 mm 1 m/S 718 mmHg 91%
    22:00 +13°C° 0.1 mm 0 m/S 717 mmHg 92%
    23:00 +13°C° 0.1 mm 0 m/S 717 mmHg 92%

    25 April, Donnerstag

    Zeit Temperatur Niederschläge Wind Luftdruck Luftfeuchtigkeit
    00:00 +13°C° 0.1 mm 0 m/S 716 mmHg 93%
    01:00 +13°C° 0.4 mm 0 m/S 716 mmHg 93%
    02:00 +13°C° 0.4 mm 0 m/S 716 mmHg 93%
    03:00 +13°C° 0.4 mm 0 m/S 715 mmHg 93%
    04:00 +13°C° 0.1 mm 0 m/S 715 mmHg 92%
    05:00 +13°C° 0.1 mm 0 m/S 715 mmHg 91%
    06:00 +14°C° 0.1 mm 0 m/S 715 mmHg 90%
    07:00 +15°C° 0.1 mm 0 m/S 715 mmHg 84%
    08:00 +16°C° 0.1 mm 0 m/S 715 mmHg 77%
    09:00 +18°C° 0.1 mm 0 m/S 715 mmHg 71%
    10:00 +20°C° 0.2 mm 1 m/S 715 mmHg 69%
    11:00 +21°C° 0.2 mm 1 m/S 714 mmHg 68%
    12:00 +21°C° 0.2 mm 1 m/S 714 mmHg 66%
    13:00 +21°C° 0.1 mm 1 m/S 714 mmHg 67%
    14:00 +21°C° 0.1 mm 1 m/S 714 mmHg 68%
    15:00 +19°C° 0.1 mm 0 m/S 713 mmHg 68%
    16:00 +19°C° 0.4 mm 1 m/S 713 mmHg 75%
    17:00 +18°C° 0.4 mm 1 m/S 713 mmHg 81%
    18:00 +16°C° 0.4 mm 1 m/S 713 mmHg 87%
    19:00 +15°C° 1 mm 1 m/S 713 mmHg 89%
    20:00 +15°C° 1 mm 1 m/S 713 mmHg 91%
    21:00 +14°C° 1 mm 2 m/S 713 mmHg 93%
    22:00 +14°C° 1.4 mm 1 m/S 713 mmHg 94%
    23:00 +13°C° 1.4 mm 1 m/S 713 mmHg 94%
    Mehr zeigen